Location: *
(35.2348°S, 91.3916°E)
Time: 09:37:13
(UTC+00:00)

EXPRESS MD2 - Pass Details

Date: 23 October 2019
Orbit: 264 x 4056 km, 49.9° (Epoch: 13 November)

Event Time Altitude Azimuth Distance (km) Brightness Sun altitude
Rises 12:59:10 0° 224° (SW) 2,073 7.6 -9.3°
Reaches altitude 10° 13:00:46 10° 216° (SW) 1,378 6.3 -9.6°
Maximum altitude 13:03:34 47° 140° (SE) 672 3.6 -10.1°
Enters shadow 13:07:22 14° 69° (ENE) 1,951 5.4 -10.8°
